EW9431 Weather Reports


Display with metric or nautical units.
time (UTC)temp
F
wind
direction
speed
MPH
gust
MPH
rain 1hr
in
rain 24hr
in
rain mn
in
humidity
%
barometer
mb
20260504184002 77 193 2.0 10.0 0.00 0.00 0.00 41 1009.7
20260504183601 76 214 5.0 10.0 0.00 0.00 0.00 40 1009.7
20260504183504 76 184 3.0 8.0 0.00 0.00 0.00 40 1009.7
20260504183104 76 223 3.0 6.0 0.00 0.00 0.00 41 1009.7
20260504182558 76 268 4.0 6.0 0.00 0.00 0.00 42 1009.7
20260504182058 76 245 3.0 6.0 0.00 0.00 0.00 41 1009.8
20260504181556 76 237 1.0 7.0 0.00 0.00 0.00 40 1009.7
20260504181056 75 237 1.0 7.0 0.00 0.00 0.00 43 1009.8
20260504180553 75 204 2.0 6.0 0.00 0.00 0.00 42 1009.8
20260504180106 75 210 1.0 5.0 0.00 0.00 0.00 43 1009.8
20260504175552 75 243 1.0 5.0 0.00 0.00 0.00 45 1009.9
20260504175055 74 196 1.0 6.0 0.00 0.00 0.00 45 1009.9
20260504174550 74 124 3.0 6.0 0.00 0.00 0.00 43 1009.8
20260504174049 73 180 3.0 6.0 0.00 0.00 0.00 43 1009.8
20260504173548 73 176 2.0 5.0 0.00 0.00 0.00 45 1009.8
20260504173058 73 230 1.0 5.0 0.00 0.00 0.00 47 1009.8
20260504172545 73 234 1.0 5.0 0.00 0.00 0.00 47 1009.9
20260504172044 72 231 2.0 6.0 0.00 0.00 0.00 47 1009.9
20260504171545 72 221 3.0 6.0 0.00 0.00 0.00 46 1009.9
20260504171042 72 220 0.0 6.0 0.00 0.00 0.00 45 1009.9
20260504170540 72 180 2.0 7.0 0.00 0.00 0.00 46 1009.9
20260504151009 62 330 0.0 4.0 0.00 0.00 0.00 62 1010.0
20260504150508 62 337 1.0 4.0 0.00 0.00 0.00 58 1009.9
20260504141054 59 14 3.0 6.0 0.00 0.00 0.00 59 1009.6
20260504140553 59 305 3.0 4.0 0.00 0.00 0.00 61 1009.7
20260504130544 58 20 3.0 5.0 0.00 0.00 0.00 59 1009.2
20260504110531 59 10 1.0 4.0 0.00 0.00 0.00 61 1009.2
20260504100521 60 10 2.0 4.0 0.00 0.00 0.00 58 1009.0
20260504081548 67 5 0.0 2.0 0.00 0.00 0.00 47 1008.8
20260504081048 67 120 0.0 2.0 0.00 0.00 0.00 47 1008.8
20260504080551 67 120 0.0 4.0 0.00 0.00 0.00 46 1008.8
20260504050530 70 31 8.0 14.0 0.00 0.00 0.00 41 1008.6
20260504045529 71 353 6.0 13.0 0.00 0.00 0.00 41 1008.6
20260504045029 71 323 7.0 13.0 0.00 0.00 0.00 41 1008.6
20260504044520 71 349 7.0 12.0 0.00 0.00 0.00 41 1008.6
20260504044012 71 10 7.0 12.0 0.00 0.00 0.00 40 1008.6
20260504043514 71 39 7.0 11.0 0.00 0.00 0.00 40 1008.6
20260504043015 71 351 6.0 11.0 0.00 0.00 0.00 40 1008.6
20260504042513 71 5 5.0 12.0 0.00 0.00 0.00 40 1008.6
20260504042011 71 10 6.0 12.0 0.00 0.00 0.00 40 1008.7
20260504041533 71 10 6.0 11.0 0.00 0.00 0.00 40 1008.7
20260504041010 71 351 6.0 10.0 0.00 0.00 0.00 40 1008.7
20260504040510 71 16 4.0 10.0 0.00 0.00 0.00 41 1008.7
20260504040019 71 333 5.0 8.0 0.00 0.00 0.00 41 1008.7
20260504035510 71 31 5.0 10.0 0.00 0.00 0.00 41 1008.6
20260504035010 71 360 5.0 10.0 0.00 0.00 0.00 42 1008.6
20260504034510 71 10 2.0 5.0 0.00 0.00 0.00 43 1008.6
20260504034009 72 355 2.0 4.0 0.00 0.00 0.00 44 1008.6
20260504033509 72 360 1.0 3.0 0.00 0.00 0.00 43 1008.6
20260504033009 73 360 1.0 3.0 0.00 0.00 0.00 43 1008.6
20260504032515 73 330 0.0 3.0 0.00 0.00 0.00 43 1008.6
20260504032007 73 360 0.0 4.0 0.00 0.00 0.00 42 1008.6
20260504031507 74 335 2.0 4.0 0.00 0.00 0.00 41 1008.6
20260504031005 75 343 2.0 4.0 0.00 0.00 0.00 40 1008.6
20260504030505 75 348 2.0 3.0 0.00 0.00 0.00 39 1008.6
20260504030005 76 347 2.0 4.0 0.00 0.00 0.00 39 1008.6
20260504025507 77 5 2.0 4.0 0.00 0.00 0.00 39 1008.6
20260504025005 78 339 1.0 3.0 0.00 0.00 0.00 39 1008.6
20260504024505 79 286 0.0 2.0 0.00 0.00 0.00 39 1008.7
20260504024046 80 286 0.0 3.0 0.00 0.00 0.00 38 1008.6
20260504023546 81 286 0.0 3.0 0.00 0.00 0.00 36 1008.7
20260504023045 82 205 0.0 2.0 0.00 0.00 0.00 35 1008.8
20260504022545 82 205 0.0 2.0 0.00 0.00 0.00 33 1008.8
20260504022045 83 205 0.0 3.0 0.00 0.00 0.00 32 1008.8
20260504021549 83 205 1.0 3.0 0.00 0.00 0.00 31 1008.8
20260504021047 83 202 0.0 4.0 0.00 0.00 0.00 30 1008.8
20260504020542 83 187 2.0 4.0 0.00 0.00 0.00 29 1008.9
20260504020044 83 220 2.0 4.0 0.00 0.00 0.00 28 1008.9
20260504015542 84 257 2.0 3.0 0.00 0.00 0.00 28 1008.9
20260504015042 84 193 0.0 4.0 0.00 0.00 0.00 28 1008.9
20260504014542 84 234 1.0 4.0 0.00 0.00 0.00 28 1008.9
20260504014044 84 349 1.0 3.0 0.00 0.00 0.00 27 1009.1
20260504013540 84 159 1.0 4.0 0.00 0.00 0.00 29 1009.2
20260504013054 84 228 1.0 4.0 0.00 0.00 0.00 27 1009.2
20260504012538 85 226 1.0 5.0 0.00 0.00 0.00 28 1009.3
20260504012039 85 274 2.0 5.0 0.00 0.00 0.00 27 1009.3
20260504011536 84 208 1.0 5.0 0.00 0.00 0.00 28 1009.4
20260504011034 84 197 1.0 4.0 0.00 0.00 0.00 27 1009.4
20260504010534 84 287 1.0 4.0 0.00 0.00 0.00 27 1009.6
20260504010037 84 188 1.0 6.0 0.00 0.00 0.00 28 1009.6
20260504005533 84 220 3.0 6.0 0.00 0.00 0.00 28 1009.6
20260504005032 84 188 2.0 7.0 0.00 0.00 0.00 27 1009.7
20260504004530 84 260 0.0 7.0 0.00 0.00 0.00 28 1009.7
20260504004029 84 239 1.0 4.0 0.00 0.00 0.00 30 1009.8
20260504003528 83 217 0.0 7.0 0.00 0.00 0.00 30 1009.9
20260504003026 83 216 2.0 7.0 0.00 0.00 0.00 30 1009.9
20260504002525 83 227 2.0 4.0 0.00 0.00 0.00 30 1010.0
20260504002025 82 171 2.0 4.0 0.00 0.00 0.00 30 1010.0
20260504001530 82 165 1.0 5.0 0.00 0.00 0.00 31 1010.1
20260504001022 82 170 0.0 5.0 0.00 0.00 0.00 31 1010.1
20260504000526 82 183 3.0 5.0 0.00 0.00 0.00 30 1010.2
20260504000019 82 170 1.0 5.0 0.00 0.00 0.00 31 1010.2
20260503235518 82 233 2.0 7.0 0.00 0.00 0.00 31 1010.3
20260503235018 82 207 3.0 7.0 0.00 0.00 0.00 31 1010.4
20260503234517 82 259 2.0 8.0 0.00 0.00 0.00 32 1010.4
20260503234016 82 210 3.0 8.0 0.00 0.00 0.00 32 1010.5
20260503233515 82 210 1.0 7.0 0.00 0.00 0.00 35 1010.5
20260503233019 81 196 1.0 7.0 0.00 0.00 0.00 32 1010.5
20260503232517 81 145 1.0 6.0 0.00 0.00 0.00 32 1010.7
20260503232012 81 187 3.0 6.0 0.00 0.00 0.00 32 1010.7
20260503231511 80 226 3.0 5.0 0.00 0.00 0.00 33 1010.8
20260503231010 80 194 2.0 5.0 0.00 0.00 0.00 33 1010.8
20260503230511 80 193 3.0 7.0 0.00 0.00 0.00 33 1010.9
20260503230030 80 136 4.0 7.0 0.00 0.00 0.00 34 1011.0
20260503225507 80 171 4.0 6.0 0.00 0.00 0.00 35 1011.1
20260503225006 80 182 5.0 6.0 0.00 0.00 0.00 34 1011.2
20260503224505 80 178 4.0 7.0 0.00 0.00 0.00 34 1011.2
20260503224004 79 187 3.0 7.0 0.00 0.00 0.00 35 1011.2
20260503223504 79 168 4.0 9.0 0.00 0.00 0.00 34 1011.3
20260503223003 79 220 4.0 9.0 0.00 0.00 0.00 34 1011.4
20260503222602 79 197 4.0 7.0 0.00 0.00 0.00 35 1011.4
20260503222059 78 203 2.0 6.0 0.00 0.00 0.00 35 1011.6
20260503221604 78 254 3.0 7.0 0.00 0.00 0.00 35 1011.6
20260503221058 78 174 3.0 8.0 0.00 0.00 0.00 35 1011.7
20260503220555 77 203 4.0 8.0 0.00 0.00 0.00 36 1011.8
20260503220054 77 181 4.0 7.0 0.00 0.00 0.00 35 1011.8
20260503215548 77 180 3.0 7.0 0.00 0.00 0.00 38 1011.9
20260503215045 77 182 4.0 9.0 0.00 0.00 0.00 36 1011.9
20260503214544 77 172 3.0 9.0 0.00 0.00 0.00 36 1012.0
20260503214043 77 168 3.0 7.0 0.00 0.00 0.00 36 1012.0
20260503213543 77 207 2.0 7.0 0.00 0.00 0.00 38 1012.1
20260503213045 76 223 2.0 8.0 0.00 0.00 0.00 37 1012.2
20260503212541 76 216 4.0 8.0 0.00 0.00 0.00 36 1012.2
20260503212040 76 206 3.0 8.0 0.00 0.00 0.00 37 1012.2
20260503211539 76 203 4.0 7.0 0.00 0.00 0.00 37 1012.3
20260503211038 76 196 4.0 8.0 0.00 0.00 0.00 38 1012.4
20260503210538 76 249 3.0 9.0 0.00 0.00 0.00 37 1012.5
20260503210037 76 199 3.0 9.0 0.00 0.00 0.00 38 1012.5
20260503205537 76 175 4.0 9.0 0.00 0.00 0.00 37 1012.5
20260503205036 76 201 4.0 8.0 0.00 0.00 0.00 38 1012.6
20260503204537 76 179 5.0 7.0 0.00 0.00 0.00 38 1012.6
20260503204035 76 180 5.0 9.0 0.00 0.00 0.00 39 1012.7
20260503203535 76 220 2.0 8.0 0.00 0.00 0.00 41 1012.7
20260503203037 76 201 3.0 8.0 0.00 0.00 0.00 41 1012.8
20260503202534 76 181 3.0 8.0 0.00 0.00 0.00 40 1012.8
20260503202033 76 286 3.0 9.0 0.00 0.00 0.00 39 1012.9
20260503201532 76 203 2.0 9.0 0.00 0.00 0.00 40 1013.1
20260503201030 76 162 5.0 8.0 0.00 0.00 0.00 39 1013.1
20260503200530 76 215 4.0 9.0 0.00 0.00 0.00 40 1013.1
20260503200030 76 213 5.0 9.0 0.00 0.00 0.00 40 1013.2
20260503195528 76 231 5.0 9.0 0.00 0.00 0.00 41 1013.2
20260503195027 76 214 4.0 8.0 0.00 0.00 0.00 41 1013.2
20260503194526 75 224 4.0 7.0 0.00 0.00 0.00 42 1013.3
20260503194025 75 266 2.0 8.0 0.00 0.00 0.00 42 1013.3
20260503193525 74 223 3.0 6.0 0.00 0.00 0.00 43 1013.4
20260503193038 74 191 2.0 6.0 0.00 0.00 0.00 43 1013.5
20260503192521 74 205 2.0 6.0 0.00 0.00 0.00 40 1013.6
20260503192020 75 262 2.0 8.0 0.00 0.00 0.00 41 1013.6
20260503191538 74 212 4.0 8.0 0.00 0.00 0.00 42 1013.6
20260503191018 74 212 3.0 7.0 0.00 0.00 0.00 43 1013.7
20260503190516 74 176 4.0 7.0 0.00 0.00 0.00 43 1013.8
20260503190027 74 216 1.0 7.0 0.00 0.00 0.00 42 1013.9
20260503185516 74 166 3.0 6.0 0.00 0.00 0.00 43 1013.9
20260503185013 74 199 3.0 7.0 0.00 0.00 0.00 44 1013.9
20260503184513 74 181 3.0 8.0 0.00 0.00 0.00 43 1014.0